EAL3106 KBFI-KSUU

Flight info

Callsign EAL3106
Flight time 1h 26m
Altitude 41000
Route DCT ZIGED DCT TAOMA J5 POWEL DCT LMT J65 RBL SEATO4
Aircraft B772/H-SDE3FGHIRWY/LB1

Departure

Time 2026-04-30 01:07
Airport King County International Airport - Boeing Field (KBFI)

Arrival

Time 2026-04-30 02:33
Airport Travis Air Force Base (KSUU)
Time Latitude Longitude Altitude Speed Heading
2026-04-30 01:04 47.52092 -122.29639 32 ft 23 kts 152°
2026-04-30 01:05 47.51953 -122.29527 31 ft 23 kts 151°
2026-04-30 01:05 47.51815 -122.29407 31 ft 23 kts 149°
2026-04-30 01:05 47.51698 -122.29306 31 ft 9 kts 147°
2026-04-30 01:05 47.51676 -122.29231 31 ft 9 kts 79°
2026-04-30 01:06 47.51710 -122.29164 31 ft 9 kts 19°
2026-04-30 01:06 47.51772 -122.29205 30 ft 19 kts 330°
2026-04-30 01:06 47.51992 -122.29395 28 ft 52 kts 330°
2026-04-30 01:06 47.52444 -122.29775 29 ft 115 kts 330°
2026-04-30 01:07 47.53299 -122.30505 652 ft 144 kts 329°
2026-04-30 01:07 47.54189 -122.31258 1410 ft 160 kts 333°
2026-04-30 01:07 47.55254 -122.32145 1604 ft 198 kts 333°
2026-04-30 01:07 47.56545 -122.33240 1757 ft 224 kts 332°
2026-04-30 01:08 47.57994 -122.34174 1974 ft 238 kts 351°
2026-04-30 01:08 47.59611 -122.33934 1997 ft 233 kts 22°
2026-04-30 01:08 47.60869 -122.32420 2187 ft 244 kts 53°
2026-04-30 01:08 47.61445 -122.30045 2460 ft 251 kts 83°
2026-04-30 01:09 47.61145 -122.27471 2756 ft 259 kts 113°
2026-04-30 01:09 47.60197 -122.25166 2923 ft 268 kts 123°
2026-04-30 01:09 47.59099 -122.22944 2968 ft 265 kts 126°
2026-04-30 01:09 47.57651 -122.21278 3243 ft 276 kts 160°
2026-04-30 01:10 47.55793 -122.20667 3787 ft 270 kts 169°
2026-04-30 01:10 47.53936 -122.20153 4299 ft 274 kts 168°
2026-04-30 01:10 47.52049 -122.19595 4830 ft 277 kts 167°
2026-04-30 01:10 47.50169 -122.19003 5449 ft 275 kts 166°
2026-04-30 01:11 47.48332 -122.18398 6082 ft 272 kts 165°
2026-04-30 01:11 47.46508 -122.17783 6746 ft 267 kts 165°
2026-04-30 01:11 47.44664 -122.17149 7175 ft 271 kts 166°
2026-04-30 01:11 47.42854 -122.16522 7659 ft 270 kts 165°
2026-04-30 01:12 47.41023 -122.15885 8063 ft 273 kts 165°
2026-04-30 01:12 47.39160 -122.15232 8434 ft 276 kts 165°
2026-04-30 01:12 47.37300 -122.14583 8920 ft 275 kts 165°
2026-04-30 01:12 47.35434 -122.13935 9292 ft 277 kts 165°
2026-04-30 01:13 47.33542 -122.13280 9641 ft 281 kts 165°
2026-04-30 01:13 47.31618 -122.12770 10028 ft 282 kts 173°
2026-04-30 01:13 47.29635 -122.12608 10215 ft 290 kts 177°
2026-04-30 01:13 47.27594 -122.12542 10390 ft 296 kts 177°
2026-04-30 01:14 47.25508 -122.12479 10579 ft 303 kts 177°
2026-04-30 01:14 47.23385 -122.12398 10852 ft 307 kts 177°
2026-04-30 01:14 47.21245 -122.12300 11211 ft 309 kts 176°
2026-04-30 01:14 47.19081 -122.12188 11573 ft 313 kts 177°
2026-04-30 01:15 47.16895 -122.12072 11980 ft 316 kts 175°
2026-04-30 01:15 47.14685 -122.11948 12416 ft 321 kts 176°
2026-04-30 01:15 47.12432 -122.11817 12881 ft 327 kts 176°
2026-04-30 01:15 47.10151 -122.11683 13407 ft 331 kts 176°
2026-04-30 01:16 47.07827 -122.11547 13894 ft 336 kts 176°
2026-04-30 01:16 47.05488 -122.11408 14449 ft 337 kts 177°
2026-04-30 01:16 47.03127 -122.11266 14879 ft 342 kts 177°
2026-04-30 01:16 47.00776 -122.11126 15389 ft 344 kts 177°
2026-04-30 01:17 46.98337 -122.10981 15813 ft 348 kts 177°
2026-04-30 01:17 46.95941 -122.10841 16290 ft 349 kts 177°
2026-04-30 01:17 46.93469 -122.10684 16710 ft 353 kts 175°
2026-04-30 01:17 46.91054 -122.10223 17099 ft 356 kts 168°
2026-04-30 01:18 46.88637 -122.09356 17489 ft 359 kts 164°
2026-04-30 01:18 46.86224 -122.08403 17959 ft 359 kts 164°
2026-04-30 01:18 46.83806 -122.07434 18367 ft 362 kts 164°
2026-04-30 01:18 46.81356 -122.06458 18648 ft 367 kts 164°
2026-04-30 01:19 46.78882 -122.05479 18945 ft 370 kts 164°
2026-04-30 01:19 46.76396 -122.04501 19255 ft 371 kts 165°
2026-04-30 01:19 46.73893 -122.03521 19541 ft 374 kts 165°
2026-04-30 01:19 46.71372 -122.02537 19825 ft 376 kts 165°
2026-04-30 01:20 46.68839 -122.01551 20101 ft 378 kts 165°
2026-04-30 01:20 46.66288 -122.00555 20332 ft 381 kts 165°
2026-04-30 01:20 46.63702 -121.99552 20468 ft 388 kts 165°
2026-04-30 01:20 46.61085 -121.98540 20684 ft 390 kts 165°
2026-04-30 01:21 46.58449 -121.97528 20955 ft 391 kts 165°
2026-04-30 01:21 46.55815 -121.96521 21219 ft 392 kts 165°
2026-04-30 01:21 46.53171 -121.95510 21379 ft 395 kts 165°
2026-04-30 01:21 46.50505 -121.94489 21536 ft 398 kts 165°
2026-04-30 01:22 46.47822 -121.93459 21737 ft 400 kts 165°
2026-04-30 01:22 46.45129 -121.92424 21947 ft 401 kts 165°
2026-04-30 01:22 46.42424 -121.91385 22140 ft 403 kts 165°
2026-04-30 01:22 46.39706 -121.90346 22318 ft 405 kts 165°
2026-04-30 01:23 46.36977 -121.89300 22511 ft 406 kts 165°
2026-04-30 01:23 46.34238 -121.88249 22706 ft 408 kts 165°
2026-04-30 01:23 46.31488 -121.87196 22873 ft 410 kts 165°
2026-04-30 01:23 46.28720 -121.86139 23001 ft 413 kts 165°
2026-04-30 01:24 46.25943 -121.85078 23196 ft 414 kts 165°
2026-04-30 01:24 46.23160 -121.84016 23385 ft 413 kts 165°
2026-04-30 01:24 46.20420 -121.82973 23608 ft 413 kts 165°
2026-04-30 01:24 46.17601 -121.81897 23732 ft 415 kts 165°
2026-04-30 01:25 46.14837 -121.80845 23827 ft 418 kts 165°
2026-04-30 01:25 46.12024 -121.79775 23927 ft 419 kts 165°
2026-04-30 01:25 46.09189 -121.78696 23951 ft 424 kts 166°
2026-04-30 01:25 46.06324 -121.77611 24021 ft 427 kts 166°
2026-04-30 01:26 46.03448 -121.76525 24160 ft 428 kts 166°
2026-04-30 01:26 46.00572 -121.75440 24333 ft 427 kts 166°
2026-04-30 01:26 45.97737 -121.74369 24505 ft 426 kts 166°
2026-04-30 01:26 45.94859 -121.73283 24568 ft 429 kts 166°
2026-04-30 01:27 45.91967 -121.72193 24635 ft 431 kts 166°
2026-04-30 01:27 45.89067 -121.71101 24756 ft 431 kts 166°
2026-04-30 01:27 45.86164 -121.70006 24860 ft 431 kts 166°
2026-04-30 01:27 45.83261 -121.68918 24938 ft 432 kts 166°
2026-04-30 01:28 45.80352 -121.67826 25064 ft 432 kts 166°
2026-04-30 01:28 45.77445 -121.66734 25198 ft 432 kts 166°
2026-04-30 01:28 45.74534 -121.65641 25283 ft 433 kts 166°
2026-04-30 01:28 45.71614 -121.64549 25412 ft 434 kts 166°
2026-04-30 01:29 45.68688 -121.63457 25508 ft 435 kts 166°
2026-04-30 01:29 45.65754 -121.62363 25604 ft 436 kts 166°
2026-04-30 01:29 45.62818 -121.61268 25768 ft 435 kts 166°
2026-04-30 01:29 45.59893 -121.60180 25905 ft 435 kts 166°
2026-04-30 01:30 45.56953 -121.59085 25904 ft 438 kts 166°
2026-04-30 01:30 45.54001 -121.57988 25938 ft 439 kts 166°
2026-04-30 01:30 45.51036 -121.56887 25977 ft 441 kts 166°
2026-04-30 01:30 45.48061 -121.55783 26044 ft 442 kts 166°
2026-04-30 01:31 45.45083 -121.54680 26148 ft 442 kts 166°
2026-04-30 01:31 45.42102 -121.53577 26250 ft 443 kts 166°
2026-04-30 01:31 45.39121 -121.52475 26347 ft 443 kts 166°
2026-04-30 01:31 45.36135 -121.51372 26416 ft 444 kts 166°
2026-04-30 01:32 45.33143 -121.50268 26473 ft 445 kts 166°
2026-04-30 01:32 45.30148 -121.49163 26527 ft 445 kts 166°
2026-04-30 01:32 45.27155 -121.48061 26621 ft 444 kts 166°
2026-04-30 01:32 45.24199 -121.46975 26662 ft 445 kts 166°
2026-04-30 01:33 45.21198 -121.45872 26715 ft 446 kts 166°
2026-04-30 01:33 45.18193 -121.44770 26762 ft 447 kts 166°
2026-04-30 01:33 45.15140 -121.43651 26805 ft 447 kts 167°
2026-04-30 01:33 45.12167 -121.42562 26860 ft 448 kts 166°
2026-04-30 01:34 45.09152 -121.41459 26917 ft 448 kts 166°
2026-04-30 01:34 45.06134 -121.40357 26984 ft 448 kts 166°
2026-04-30 01:34 45.03116 -121.39256 27011 ft 448 kts 166°
2026-04-30 01:34 45.00095 -121.38154 27070 ft 449 kts 166°
2026-04-30 01:35 44.97079 -121.37056 27071 ft 450 kts 166°
2026-04-30 01:35 44.94044 -121.35951 27116 ft 450 kts 166°
2026-04-30 01:35 44.91010 -121.34849 27157 ft 451 kts 166°
2026-04-30 01:35 44.87972 -121.33746 27213 ft 450 kts 166°
2026-04-30 01:36 44.84939 -121.32646 27259 ft 450 kts 166°
2026-04-30 01:36 44.81901 -121.31546 27308 ft 451 kts 167°
2026-04-30 01:36 44.78863 -121.30444 27346 ft 451 kts 167°
2026-04-30 01:36 44.75821 -121.29346 27362 ft 452 kts 167°
2026-04-30 01:37 44.72774 -121.28248 27406 ft 452 kts 167°
2026-04-30 01:37 44.69723 -121.27149 27427 ft 453 kts 167°
2026-04-30 01:37 44.66668 -121.26047 27443 ft 454 kts 167°
2026-04-30 01:37 44.63609 -121.24945 27511 ft 454 kts 167°
2026-04-30 01:38 44.60551 -121.23845 27570 ft 454 kts 167°
2026-04-30 01:38 44.57491 -121.22745 27580 ft 455 kts 167°
2026-04-30 01:38 44.54424 -121.21645 27598 ft 455 kts 167°
2026-04-30 01:38 44.51355 -121.20544 27624 ft 455 kts 167°
2026-04-30 01:39 44.48286 -121.19445 27656 ft 455 kts 167°
2026-04-30 01:39 44.45218 -121.18347 27687 ft 456 kts 167°
2026-04-30 01:39 44.42146 -121.17248 27710 ft 456 kts 167°
2026-04-30 01:39 44.39072 -121.16150 27730 ft 456 kts 167°
2026-04-30 01:40 44.36004 -121.15054 27761 ft 456 kts 167°
2026-04-30 01:40 44.32971 -121.13971 27787 ft 456 kts 167°
2026-04-30 01:40 44.29897 -121.12873 27795 ft 456 kts 167°
2026-04-30 01:40 44.26817 -121.11776 27804 ft 457 kts 167°
2026-04-30 01:41 44.23737 -121.10683 27827 ft 457 kts 167°
2026-04-30 01:41 44.20639 -121.09747 27872 ft 454 kts 174°
2026-04-30 01:41 44.17512 -121.09476 28087 ft 447 kts 184°
2026-04-30 01:41 44.14428 -121.09749 28414 ft 440 kts 192°
2026-04-30 01:42 44.11455 -121.10551 28704 ft 435 kts 198°
2026-04-30 01:42 44.08458 -121.11552 29088 ft 451 kts 199°
2026-04-30 01:42 44.05371 -121.12619 29658 ft 463 kts 199°
2026-04-30 01:42 44.02214 -121.13705 30347 ft 471 kts 199°
2026-04-30 01:43 43.99020 -121.14786 31024 ft 476 kts 199°
2026-04-30 01:43 43.95774 -121.15865 31702 ft 482 kts 199°
2026-04-30 01:43 43.92497 -121.16942 32311 ft 488 kts 199°
2026-04-30 01:43 43.89180 -121.18021 33020 ft 491 kts 199°
2026-04-30 01:44 43.85845 -121.19100 33704 ft 494 kts 199°
2026-04-30 01:44 43.82474 -121.20190 34263 ft 500 kts 199°
2026-04-30 01:44 43.79070 -121.21290 34778 ft 504 kts 199°
2026-04-30 01:44 43.75652 -121.22391 35389 ft 505 kts 199°
2026-04-30 01:45 43.72218 -121.23498 35941 ft 508 kts 199°
2026-04-30 01:45 43.68759 -121.24614 36427 ft 513 kts 199°
2026-04-30 01:45 43.65276 -121.25736 36967 ft 515 kts 199°
2026-04-30 01:45 43.61791 -121.26855 37616 ft 514 kts 199°
2026-04-30 01:46 43.58316 -121.27968 38365 ft 511 kts 199°
2026-04-30 01:46 43.54869 -121.29071 39045 ft 508 kts 199°
2026-04-30 01:46 43.51445 -121.30165 39693 ft 502 kts 199°
2026-04-30 01:46 43.48060 -121.31247 40341 ft 498 kts 199°
2026-04-30 01:47 43.44691 -121.32325 40875 ft 496 kts 198°
2026-04-30 01:47 43.41317 -121.33407 41175 ft 500 kts 198°
2026-04-30 01:47 43.34498 -121.35590 41143 ft 500 kts 198°
2026-04-30 01:48 43.27768 -121.37726 41141 ft 494 kts 198°
2026-04-30 01:48 43.21064 -121.39856 41131 ft 495 kts 198°
2026-04-30 01:49 43.14359 -121.41981 41136 ft 495 kts 198°
2026-04-30 01:49 43.07651 -121.44102 41131 ft 495 kts 198°
2026-04-30 01:50 43.02067 -121.45864 41127 ft 496 kts 198°
2026-04-30 01:50 42.95352 -121.47978 41120 ft 495 kts 198°
2026-04-30 01:51 42.88643 -121.50084 41127 ft 494 kts 198°
2026-04-30 01:51 42.81941 -121.52184 41105 ft 494 kts 198°
2026-04-30 01:52 42.74103 -121.54636 41103 ft 495 kts 198°
2026-04-30 01:52 42.68528 -121.56375 41098 ft 494 kts 198°
2026-04-30 01:53 42.61835 -121.58458 41104 ft 493 kts 198°
2026-04-30 01:53 42.55147 -121.60535 41097 ft 493 kts 198°
2026-04-30 01:54 42.48466 -121.62605 41105 ft 492 kts 198°
2026-04-30 01:54 42.41788 -121.64668 41089 ft 492 kts 198°
2026-04-30 01:55 42.35118 -121.66726 41096 ft 491 kts 198°
2026-04-30 01:55 42.28501 -121.68762 41093 ft 491 kts 198°
2026-04-30 01:56 42.21841 -121.70804 41086 ft 491 kts 198°
2026-04-30 01:56 42.15174 -121.72847 41121 ft 490 kts 198°
2026-04-30 01:57 42.08478 -121.74670 41129 ft 491 kts 195°
2026-04-30 01:57 42.01749 -121.76332 41129 ft 491 kts 195°
2026-04-30 01:58 41.95037 -121.77993 41115 ft 491 kts 195°
2026-04-30 01:58 41.88326 -121.79681 41095 ft 490 kts 195°
2026-04-30 01:59 41.78282 -121.82221 41106 ft 489 kts 195°
2026-04-30 02:00 41.71596 -121.83909 41098 ft 489 kts 195°
2026-04-30 02:00 41.64910 -121.85593 41113 ft 489 kts 195°
2026-04-30 02:01 41.58218 -121.87273 41110 ft 489 kts 195°
2026-04-30 02:01 41.51522 -121.88950 41109 ft 490 kts 195°
2026-04-30 02:02 41.44818 -121.90624 41097 ft 490 kts 195°
2026-04-30 02:02 41.38172 -121.92281 41080 ft 489 kts 195°
2026-04-30 02:03 41.31485 -121.93947 41081 ft 489 kts 195°
2026-04-30 02:03 41.24804 -121.95607 41091 ft 489 kts 195°
2026-04-30 02:04 41.18109 -121.97267 41084 ft 490 kts 195°
2026-04-30 02:04 41.11401 -121.98927 41036 ft 491 kts 195°
2026-04-30 02:05 41.04696 -122.00583 41043 ft 490 kts 195°
2026-04-30 02:05 40.98015 -122.02226 41038 ft 488 kts 195°
2026-04-30 02:06 40.91341 -122.03864 41030 ft 487 kts 195°
2026-04-30 02:06 40.84681 -122.05499 41009 ft 486 kts 195°
2026-04-30 02:07 40.78037 -122.07127 41011 ft 485 kts 194°
2026-04-30 02:07 40.71399 -122.08749 41001 ft 485 kts 195°
2026-04-30 02:08 40.64763 -122.10367 40996 ft 485 kts 194°
2026-04-30 02:08 40.58126 -122.11982 40976 ft 485 kts 194°
2026-04-30 02:09 40.51492 -122.13592 40987 ft 485 kts 194°
2026-04-30 02:09 40.44841 -122.15206 40429 ft 492 kts 194°
2026-04-30 02:09 40.41464 -122.16025 39821 ft 500 kts 194°
2026-04-30 02:10 40.37950 -122.16881 39181 ft 526 kts 194°
2026-04-30 02:10 40.34282 -122.17771 38675 ft 545 kts 194°
2026-04-30 02:10 40.30529 -122.18672 38444 ft 547 kts 194°
2026-04-30 02:10 40.26820 -122.19554 37849 ft 538 kts 194°
2026-04-30 02:11 40.23113 -122.20439 37421 ft 546 kts 194°
2026-04-30 02:11 40.15588 -122.22243 37409 ft 543 kts 194°
2026-04-30 02:11 40.11940 -122.23109 37193 ft 525 kts 193°
2026-04-30 02:12 40.08330 -122.23537 36609 ft 521 kts 179°
2026-04-30 02:12 40.04775 -122.22920 36197 ft 511 kts 172°
2026-04-30 02:12 40.01316 -122.22119 35959 ft 499 kts 171°
2026-04-30 02:12 39.97991 -122.21328 35736 ft 488 kts 172°
2026-04-30 02:13 39.94727 -122.20572 35250 ft 464 kts 172°
2026-04-30 02:13 39.91592 -122.19876 34100 ft 455 kts 172°
2026-04-30 02:13 39.88379 -122.19197 32518 ft 479 kts 173°
2026-04-30 02:13 39.85043 -122.18511 31531 ft 486 kts 173°
2026-04-30 02:14 39.81690 -122.17827 30579 ft 490 kts 173°
2026-04-30 02:14 39.78311 -122.17140 29652 ft 491 kts 173°
2026-04-30 02:14 39.74937 -122.16454 28676 ft 489 kts 173°
2026-04-30 02:14 39.71584 -122.15771 27701 ft 486 kts 173°
2026-04-30 02:15 39.68252 -122.15092 26799 ft 483 kts 173°
2026-04-30 02:15 39.64948 -122.14419 26015 ft 477 kts 173°
2026-04-30 02:15 39.61695 -122.13756 25302 ft 470 kts 173°
2026-04-30 02:15 39.58488 -122.13104 24601 ft 464 kts 173°
2026-04-30 02:16 39.55320 -122.12461 23896 ft 459 kts 173°
2026-04-30 02:16 39.52185 -122.11825 23126 ft 454 kts 173°
2026-04-30 02:16 39.49080 -122.11196 22354 ft 448 kts 172°
2026-04-30 02:16 39.46020 -122.10577 21621 ft 442 kts 172°
2026-04-30 02:17 39.42936 -122.09953 21412 ft 452 kts 172°
2026-04-30 02:17 39.39834 -122.09327 21411 ft 451 kts 172°
2026-04-30 02:17 39.36741 -122.08702 21404 ft 450 kts 172°
2026-04-30 02:17 39.33650 -122.08078 21400 ft 449 kts 172°
2026-04-30 02:18 39.30567 -122.07456 21390 ft 448 kts 172°
2026-04-30 02:18 39.27485 -122.06832 21394 ft 448 kts 172°
2026-04-30 02:18 39.24410 -122.06212 21385 ft 447 kts 172°
2026-04-30 02:18 39.21339 -122.05595 21380 ft 447 kts 172°
2026-04-30 02:19 39.18267 -122.04977 21372 ft 445 kts 172°
2026-04-30 02:19 39.15132 -122.04347 20708 ft 473 kts 172°
2026-04-30 02:19 39.11888 -122.03693 19969 ft 453 kts 172°
2026-04-30 02:19 39.08864 -122.03085 19150 ft 436 kts 172°
2026-04-30 02:20 39.05877 -122.02521 18379 ft 431 kts 174°
2026-04-30 02:20 39.02945 -122.02144 17553 ft 427 kts 176°
2026-04-30 02:20 39.00006 -122.01864 16784 ft 421 kts 176°
2026-04-30 02:20 38.97109 -122.01612 16039 ft 416 kts 176°
2026-04-30 02:21 38.94206 -122.01353 15319 ft 411 kts 176°
2026-04-30 02:21 38.91408 -122.01090 14633 ft 406 kts 176°
2026-04-30 02:21 38.88609 -122.00813 13943 ft 402 kts 176°
2026-04-30 02:21 38.85864 -122.00533 13177 ft 384 kts 175°
2026-04-30 02:22 38.83335 -122.00021 12717 ft 352 kts 166°
2026-04-30 02:22 38.81093 -121.99152 12383 ft 323 kts 160°
2026-04-30 02:22 38.79073 -121.98134 11910 ft 304 kts 155°
2026-04-30 02:22 38.77191 -121.97020 11314 ft 293 kts 154°
2026-04-30 02:23 38.75364 -121.95914 10628 ft 288 kts 154°
2026-04-30 02:23 38.73570 -121.94824 9935 ft 284 kts 153°
2026-04-30 02:23 38.71794 -121.93744 9149 ft 282 kts 153°
2026-04-30 02:23 38.70026 -121.92669 8411 ft 279 kts 153°
2026-04-30 02:24 38.68319 -121.91634 8043 ft 264 kts 153°
2026-04-30 02:24 38.66682 -121.90644 7704 ft 263 kts 153°
2026-04-30 02:24 38.64988 -121.89618 7381 ft 276 kts 153°
2026-04-30 02:24 38.63225 -121.88550 7018 ft 281 kts 154°
2026-04-30 02:25 38.61462 -121.87485 6650 ft 281 kts 153°
2026-04-30 02:25 38.59694 -121.86419 6286 ft 281 kts 153°
2026-04-30 02:25 38.57930 -121.85352 5910 ft 280 kts 153°
2026-04-30 02:25 38.56167 -121.84286 5548 ft 280 kts 153°
2026-04-30 02:26 38.54428 -121.83238 5174 ft 280 kts 154°
2026-04-30 02:26 38.52670 -121.82181 4814 ft 279 kts 153°
2026-04-30 02:26 38.50909 -121.81123 4450 ft 280 kts 154°
2026-04-30 02:26 38.49150 -121.80067 4083 ft 279 kts 154°
2026-04-30 02:27 38.47514 -121.78833 3818 ft 270 kts 144°
2026-04-30 02:27 38.46026 -121.77408 3576 ft 265 kts 142°
2026-04-30 02:27 38.44570 -121.75995 3347 ft 261 kts 143°
2026-04-30 02:27 38.43332 -121.74809 3145 ft 256 kts 143°
2026-04-30 02:28 38.41801 -121.73836 2921 ft 244 kts 171°
2026-04-30 02:28 38.40154 -121.74019 2728 ft 235 kts 202°
2026-04-30 02:28 38.38770 -121.75038 2527 ft 227 kts 222°
2026-04-30 02:28 38.37669 -121.76446 2317 ft 222 kts 230°
2026-04-30 02:29 38.36651 -121.77886 2129 ft 215 kts 230°
2026-04-30 02:29 38.35716 -121.79247 2061 ft 192 kts 231°
2026-04-30 02:29 38.34849 -121.80485 1828 ft 180 kts 231°
2026-04-30 02:29 38.34056 -121.81601 1674 ft 161 kts 233°
2026-04-30 02:30 38.33347 -121.82597 1430 ft 144 kts 233°
2026-04-30 02:30 38.32696 -121.83510 1280 ft 133 kts 232°
2026-04-30 02:30 38.32096 -121.84345 1124 ft 118 kts 235°
2026-04-30 02:30 38.31571 -121.85083 991 ft 110 kts 234°
2026-04-30 02:31 38.31022 -121.85855 856 ft 122 kts 231°
2026-04-30 02:31 38.30465 -121.86634 709 ft 118 kts 231°
2026-04-30 02:31 38.29913 -121.87399 587 ft 115 kts 230°
2026-04-30 02:31 38.29378 -121.88156 444 ft 114 kts 227°
2026-04-30 02:32 38.28849 -121.88878 296 ft 108 kts 229°
2026-04-30 02:32 38.28339 -121.89592 159 ft 111 kts 230°
2026-04-30 02:32 38.27820 -121.90317 61 ft 106 kts 229°
2026-04-30 02:32 38.27400 -121.90905 61 ft 77 kts 227°
2026-04-30 02:33 38.27087 -121.91341 61 ft 58 kts 227°
2026-04-30 02:33 38.26848 -121.91674 58 ft 45 kts 228°
2026-04-30 02:33 38.26657 -121.91939 57 ft 37 kts 227°
2026-04-30 02:33 38.26544 -121.92104 59 ft 13 kts 244°
2026-04-30 02:34 38.26575 -121.92206 62 ft 13 kts 317°
2026-04-30 02:34 38.26643 -121.92285 58 ft 13 kts 317°
2026-04-30 02:34 38.26711 -121.92365 59 ft 13 kts 317°
2026-04-30 02:34 38.26780 -121.92445 60 ft 13 kts 317°
2026-04-30 02:35 38.26808 -121.92516 58 ft 7 kts 244°
2026-04-30 02:35 38.26771 -121.92561 58 ft 8 kts 225°
2026-04-30 02:35 38.26721 -121.92628 60 ft 13 kts 226°
2026-04-30 02:35 38.26634 -121.92746 60 ft 14 kts 227°
2026-04-30 02:36 38.26570 -121.92833 56 ft 14 kts 227°
2026-04-30 02:36 38.26553 -121.92940 61 ft 13 kts 290°
2026-04-30 02:36 38.26559 -121.92967 57 ft 2 kts 282°
2026-04-30 02:36 38.26558 -121.92987 61 ft 2 kts 263°
2026-04-30 02:37 38.26552 -121.93005 58 ft 2 kts 237°
2026-04-30 02:37 38.26539 -121.93017 57 ft 2 kts 211°
2026-04-30 02:37 38.26534 -121.93028 55 ft 3 kts 248°
2026-04-30 02:37 38.26526 -121.93040 59 ft 0 kts 229°